Regional Weather Roundup
Issued by NWS

Home | Current Version | Previous Version | Text Only | Print | Product List | Glossary On
Versions: 1 2 3 4 5 6 7 8 9 10 11 12 13 14 15 16 17 18 19 20 21 22 23 24 25 26 27 28 29 30 31 32 33 34 35 36 37 38 39 40 41 42 43 44 45 46 47 48 49 50
000
ASUS43 KDTX 301501
RWRMI
MICHIGAN HOURLY REGIONAL WEATHER ROUNDUP
NATIONAL WEATHER SERVICE DETROIT/PONTIAC MI
1100 AM EDT SUN AUG 30 2015

NOTE: "FAIR" INDICATES FEW OR NO CLOUDS BELOW 12,000 FEET WITH NO
SIGNIFICANT WEATHER AND/OR OBSTRUCTION TO VISIBILITY.

MIZ047>049-052>055-059>063-066>070-074>076-081>083-301600-
SOUTHEAST LOWER MICHIGAN

CITY           SKY/WX    TMP DP  RH WIND       PRES   REMARKS
ADRIAN         CLOUDY    73  68  84 SW5       30.09S
ALMA           CLOUDY    67  66  97 CALM      30.09S FOG
ANN ARBOR      CLOUDY    72  68  87 SE3       30.08S
BAD AXE        CLOUDY    69  65  85 CALM      30.10S
CARO           PTSUNNY   72  68  87 CALM      30.08S
DETROIT CITY   CLOUDY    75  66  73 SW3       30.09R
DETROIT        CLOUDY    74  67  78 SE5       30.09R
FLINT          PTSUNNY   74  67  78 S9        30.08R
GROSSE ILE     MOSUNNY   73  70  88 S7        30.08R
HILLSDALE      MOSUNNY   74  70  87 SW3       30.09S
HOWELL         CLOUDY    69  67  93 CALM      30.09S FOG

CITY           SKY/WX    TMP DP  RH WIND       PRES   REMARKS
JACKSON        PTSUNNY   72  67  84 SW6       30.09R
LAMBERTVILLE   PTSUNNY   76  69  79 CALM      30.09S
LANSING        CLOUDY    70  67  90 S6        30.08S FOG
LAPEER         CLOUDY    71  67  87 CALM      30.09S
MASON          CLOUDY    71  65  83 CALM      30.08S HAZE
MONROE         MOSUNNY   75  67  77 S6        30.07S
MT. CLEMENS    PTSUNNY   74  69  82 W3        30.07S
PONTIAC        CLOUDY    70  66  87 S5        30.08S FOG
PORT HOPE        N/A     68  66  93 E6        30.08S
PORT HURON     CLOUDY    72  68  88 CALM      30.09S
TRI CITIES     CLOUDY    73  66  78 N3        30.08S
MIDLAND        CLOUDY    70  65  85 CALM      30.07S
TROY           CLOUDY    72  68  88 SW3       30.10S
SAGINAW HB     PTSUNNY   72  68  88 CALM      30.07S
$$
MIZ043>046-050>051-056>058-064>065-071>073-077>080-301600-
SOUTHWEST LOWER MICHIGAN

CITY           SKY/WX    TMP DP  RH WIND       PRES   REMARKS
BATTLE CREEK   CLOUDY    70  67  90 SW3       30.09R FOG
BENTON HARBOR  SUNNY     72  65  78 W6        30.07S
BIG RAPIDS     CLOUDY    68  64  88 E3        30.08S
COLDWATER      PTSUNNY   73  69  86 CALM      30.08S
FREMONT        CLOUDY    68  66  94 E5        30.08R FOG
HOLLAND        CLOUDY    72  67  84 CALM      30.08R HAZE
GRAND RAPIDS   CLOUDY    68  67  96 S3        30.08R FOG
IONIA          CLOUDY    69  68  98 CALM      30.07S FOG
KALAMAZOO      CLOUDY    70  67  90 SW5       30.08R FOG
LUDINGTON      CLOUDY    71  64  80 CALM      30.08S
MARSHALL       CLOUDY    70  67  91 CALM      30.08S FOG
MOUNT PLEASANT CLOUDY    70  66  87 CALM      30.07F
MUSKEGON       CLOUDY    69  64  84 CALM      30.07S HAZE
SOUTH HAVEN    SUNNY     73  64  74 SW3       30.07R
$$
MIZ016>042-301600-
NORTHERN LOWER MICHIGAN

CITY           SKY/WX    TMP DP  RH WIND       PRES   REMARKS
ALPENA         MOSUNNY   70  61  73 S6        30.08F
BEAVER ISLAND  SUNNY     70  61  72 SW10      30.06S
BELLAIRE       CLOUDY    62  61  96 SW3       30.08S FOG
CADILLAC       CLOUDY    67  61  81 CALM      30.09R
CHARLEVOIX     CLOUDY    66  64  93 S5        30.10R
FRANKFORT      CLOUDY    67  62  84 CALM      30.08S
GAYLORD        SUNNY     68  60  75 S7        30.08F
GRAYLING       MOSUNNY   65  60  82 CALM      30.10S
HARBOR SPRINGS CLOUDY    62  61  95 CALM      30.08R FOG
HOUGHTON LAKE  CLOUDY    66  61  84 CALM      30.10R
MANISTEE       CLOUDY    66  61  82 CALM      30.09S
OSCODA         CLOUDY    68  63  84 CALM      30.08F
PELLSTON       MOSUNNY   70  62  76 CALM      30.07S
ROGERS CITY    SUNNY     71  63  76 CALM      30.08S
TRAVERSE CITY  MOSUNNY   69  62  78 N3        30.07S
$$
MIZ007>008-015-301600-
EASTERN UPPER MICHIGAN

CITY           SKY/WX    TMP DP  RH WIND       PRES   REMARKS
KINROSS        CLOUDY    66  63  88 S7        30.05F
MACKINAC ISLAN MOSUNNY   67  63  86 W7        30.06F
NEWBERRY       PTSUNNY   69  63  81 SW12      30.03F
S. S. MARIE    CLOUDY    67  62  84 SE8       30.04F
$$
MIZ004>006-011>014-085-301600-
CENTRAL UPPER MICHIGAN

CITY           SKY/WX    TMP DP  RH WIND       PRES   REMARKS
MANISTIQUE     SUNNY     67  63  85 S12       30.04S
ESCANABA       SUNNY     66  61  82 S6        30.03S
MENOMINEE      SUNNY     64  59  82 W7        30.05S
SAWYER-GWINN   SUNNY     66  61  82 SW9       30.02F
$$
MIZ001>003-009>011-084-301600-
WESTERN UPPER MICHIGAN

CITY           SKY/WX    TMP DP  RH WIND       PRES   REMARKS
IRON MOUNTAIN  SUNNY     67  61  81 VRB3      30.02F
HOUGHTON       SUNNY     69  61  75 SW7       29.95F
IRONWOOD       SUNNY     68  63  83 SW13G18   29.95F
$$

ABBREVIATIONS USED IN REMARKS
   TC - TEMPERATURE IN CELSIUS
  WCI - WIND CHILL INDEX
   HX - HEAT INDEX
  VSB - VISIBILITY




USA.gov is the U.S. government's official web portal to all federal, state and local government web resources and services.